Find Starlink 32279

NORAD ID: 61003 Int'l Des: 2024-158 Owner: SPXS Country: US Constellation: starlink operational
LEOCIRCULAR

实时位置

正在加载3D地球...

关于 Starlink 32279

正在加载描述...

即将过境

Passes for default location (London). Set your location on the main map for personalized predictions.

高度历史

Loading altitude history...

两行轨道根数

1 61003U 24158P 26127.10116589 -.00000548 00000-0 -63972-5 0 9990
2 61003 53.1587 154.2621 0000954 75.8491 284.2616 15.30190535 94592
Epoch: May 7, 2026 • Age: 6 hours

当前状态

高度 493.4 km
速度 7.62 km/s
星下点 -50.76°S, 96.5°E
发射日期 Sep 5, 2024
运行时间 1.6 years
类型 internet

技术详情

分类 Payload
质量 730.00 kg
干质量 700.00 kg
总质量 730.00 kg
长度 0.30 m
直径 4.10 m
跨度 29.00 m
形状 Box + pan
制造商 SPXS
平台类型 Starlink V2M
阶段状态 In Orbit
所有者/国家 SPXS/US

Most Searched